Weather History for Nuuk, Greenland

Change the Weather History Date:

Sunday, January 6, 2013

  Actual Average Record
Temperature  
Mean Temperature 20 °F -  
Max Temperature 28 °F 20 °F 41 °F (2009)
Min Temperature 14 °F 14 °F 1 °F (2008)
Degree Days  
Heating Degree Days 45    
Moisture  
Dew Point 7 °F    
Average Humidity 61    
Maximum Humidity 73    
Minimum Humidity 38    
Precipitation  
Precipitation 0.02 in - - ()
Sea Level Pressure  
Sea Level Pressure 29.36 in    
Wind  
Wind Speed 12 mph ()    
Max Wind Speed 32 mph    
Max Gust Speed -    
Visibility 6.6 miles    
Events Snow    
Averages and records for this station are not official NWS values.
T = Trace of Precipitation, MM = Missing Value Source: Averaged Metar Reports

Daily Weather History Graph

Daily Weather History Graph

Search for Another Location

Airport:

Trip Planner

Search our weather history database for the weather conditions in past years. The results will help you decide how hot, cold, wet, or windy it might be!

Date:

Astronomy

Jan. 06, 2013 Rise Set
Actual Time 10:12 AM WGT 2:53 PM WGT
Civil Twilight 8:58 AM WGT 4:07 PM WGT
Nautical Twilight 7:51 AM WGT 5:14 PM WGT
Astronomical Twilight 6:52 AM WGT 6:13 PM WGT
Moon 3:12 AM WGT (1/6) 11:15 AM WGT (1/6)
Length of Visible Light 7h 08m
Length of Day
4h 41m
Waning Crescent, 34% of the Moon is Illuminated
Jan 6
Waning Crescent
Jan 11
New
Jan 18
First Quarter
Jan 27
Full
Feb 3
Last Quarter

Hourly Weather History & Observations

Time (WGT) Temp. Windchill Dew Point Humidity Pressure Visibility Wind Dir Wind Speed Gust Speed Precip Events Conditions
12:00 AM 18 °F - 7 °F 50% 29.42 in 31 mi North 9.2 mph - -   Clear
12:20 AM 15.8 °F 7.2 °F 6.8 °F 68% 29.42 in 6.2 mi NNE 5.8 mph - N/A   Mostly Cloudy
12:50 AM 15.8 °F 8.6 °F 6.8 °F 68% 29.42 in 6.2 mi NE 4.6 mph - N/A   Mostly Cloudy
1:20 AM 17.6 °F 9.3 °F 6.8 °F 63% 29.42 in 6.2 mi NNE 5.8 mph - N/A   Overcast
1:50 AM 17.6 °F 7.3 °F 6.8 °F 63% 29.42 in 6.2 mi North 8.1 mph - N/A   Overcast
2:20 AM 17.6 °F 6.4 °F 5.0 °F 58% 29.42 in 6.2 mi North 9.2 mph - N/A   Mostly Cloudy
2:50 AM 17.6 °F 6.4 °F 5.0 °F 58% 29.42 in 6.2 mi North 9.2 mph - N/A   Mostly Cloudy
3:00 AM 18 °F - 7 °F 48% 29.42 in 31 mi North 12.7 mph - - Snow Light Snow Showers
3:20 AM 15.8 °F 4.2 °F 8.6 °F 73% 29.42 in 6.2 mi North 9.2 mph - N/A   Mostly Cloudy
3:50 AM 15.8 °F 6.1 °F 8.6 °F 73% 29.42 in 6.2 mi ENE 6.9 mph - N/A   Mostly Cloudy
4:20 AM 15.8 °F 2.7 °F 6.8 °F 68% 29.42 in 6.2 mi NNE 11.5 mph - N/A   Mostly Cloudy
4:50 AM 15.8 °F 2.7 °F 6.8 °F 68% 29.42 in 6.2 mi NNE 11.5 mph - N/A   Mostly Cloudy
5:20 AM 15.8 °F 1.4 °F 6.8 °F 68% 29.42 in 6.2 mi NE 13.8 mph - N/A   Mostly Cloudy
5:50 AM 17.6 °F 7.3 °F 8.6 °F 68% 29.42 in 6.2 mi NE 8.1 mph - N/A   Mostly Cloudy
6:00 AM 18 °F - 7 °F 47% 29.40 in 31 mi North 16.1 mph - -   Scattered Clouds
6:20 AM 17.6 °F 3.7 °F 8.6 °F 68% 29.42 in 6.2 mi NNE 13.8 mph - N/A   Mostly Cloudy
6:50 AM 17.6 °F 4.3 °F 8.6 °F 68% 29.42 in 6.2 mi NNE 12.7 mph - N/A Snow Light Snow Showers
7:20 AM 17.6 °F 3.7 °F 6.8 °F 63% 29.42 in 6.2 mi NE 13.8 mph - N/A Snow Light Snow Showers
7:50 AM 17.6 °F 5.7 °F 6.8 °F 63% 29.39 in 6.2 mi NE 10.4 mph - N/A   Overcast
8:50 AM 15.8 °F 1.4 °F 8.6 °F 73% 29.39 in 6.2 mi NE 13.8 mph - N/A   Mostly Cloudy
9:00 AM 17 °F - 11 °F 66% 29.37 in 31 mi North 18.4 mph - - Snow Light Snow Showers
9:50 AM 17.6 °F 3.7 °F 5.0 °F 58% 29.39 in 6.2 mi NE 13.8 mph - N/A   Mostly Cloudy
10:50 AM 15.8 °F -1.1 °F 6.8 °F 68% 29.36 in 6.2 mi NE 19.6 mph - N/A   Scattered Clouds
11:50 AM 15.8 °F -1.1 °F 5.0 °F 62% 29.36 in 6.2 mi NE 19.6 mph - N/A   Scattered Clouds
12:00 PM 17 °F - 4 °F 42% 29.34 in 31 mi NE 17.3 mph - -   Clear
12:50 PM 15.8 °F -1.9 °F 5.0 °F 62% 29.33 in 6.2 mi NE 21.9 mph - N/A   Mostly Cloudy
1:50 PM 15.8 °F -2.3 °F 5.0 °F 62% 29.33 in 6.2 mi NE 23.0 mph - N/A   Mostly Cloudy
2:50 PM 14.0 °F -5.8 °F 5.0 °F 67% 29.33 in 6.2 mi NE 26.5 mph - N/A Snow Low Drifting Snow
3:00 PM 16 °F - 4 °F 45% 29.32 in 9 mi NE 24.2 mph - - Snow Light Snow Showers
3:50 PM 14.0 °F -6.2 °F 5.0 °F 67% 29.30 in 6.2 mi NE 27.6 mph - N/A Snow Low Drifting Snow
4:50 PM 14.0 °F -6.8 °F 6.8 °F 73% 29.30 in 6.2 mi NE 29.9 mph - N/A Snow Light Snow Showers
5:50 PM 14.0 °F -6.8 °F 5.0 °F 67% 29.27 in 6.2 mi NE 29.9 mph - N/A Snow Low Drifting Snow
6:00 PM 16 °F - 6 °F 51% 29.26 in 18 mi NE 32.2 mph - -   Clear
6:50 PM 14.0 °F -6.5 °F 5.0 °F 67% 29.27 in 6.2 mi ENE 28.8 mph - N/A Snow Low Drifting Snow
7:50 PM 15.8 °F -4.7 °F 5.0 °F 62% 29.24 in 6.2 mi ENE 31.1 mph - N/A Snow Low Drifting Snow
8:50 PM 17.6 °F 0.9 °F 3.2 °F 53% 29.27 in 6.2 mi ENE 20.7 mph - N/A Snow Low Drifting Snow
9:00 PM 19 °F - 4 °F 38% 29.25 in 31 mi NE 29.9 mph - -   Clear
9:50 PM 21.2 °F 10.9 °F 5.0 °F 50% 29.27 in 6.2 mi Variable 9.2 mph - N/A   Overcast
10:20 PM 23.0 °F 12.4 °F 6.8 °F 50% 29.30 in 6.2 mi ENE 10.4 mph - N/A   Mostly Cloudy
10:50 PM 23.0 °F 15.8 °F 6.8 °F 50% 29.33 in 6.2 mi South 5.8 mph - N/A   Mostly Cloudy
11:20 PM 26.6 °F 18.2 °F 12.2 °F 55% 29.33 in 6.2 mi SSW 8.1 mph - N/A   Mostly Cloudy
11:50 PM 28.4 °F 19.1 °F 17.6 °F 64% 29.33 in 6.2 mi South 10.4 mph - N/A Snow Light Snow Showers